GW7641 Weather Reports


time (UTC)temp
C
wind
direction
speed
KPH
gust
KPH
rain 1hr
cm
rain 24hr
cm
rain mn
cm
humidity
%
barometer
mb
20260906220437 28 179 1.6 3.2 0.00 0.00 0.00 39 1007.2
20260906215936 28 149 1.6 4.8 0.00 0.00 0.00 39 1007.3
20260906215431 28 137 1.6 12.9 0.00 0.00 0.00 39 1007.3
20260906214929 28 185 1.6 4.8 0.00 0.00 0.00 38 1007.8
20260906214428 28 162 12.9 16.1 0.00 0.00 0.00 37 1007.8
20260906213927 28 210 6.4 12.9 0.00 0.00 0.00 37 1007.8
20260906213422 28 193 3.2 8.0 0.00 0.00 0.00 37 1008.0
20260906212920 28 134 4.8 11.3 0.00 0.00 0.00 37 1007.7
20260906212415 28 225 8.0 14.5 0.00 0.00 0.00 37 1007.8
20260906211915 28 135 1.6 1.6 0.00 0.00 0.00 38 1008.0
20260906211410 28 220 1.6 8.0 0.00 0.00 0.00 38 1008.1
20260906210911 28 293 1.6 1.6 0.00 0.00 0.00 38 1008.2
20260906210408 28 145 3.2 8.0 0.00 0.00 0.00 37 1008.0
20260906205907 28 136 1.6 8.0 0.00 0.00 0.00 37 1008.3
20260906205403 27 161 4.8 11.3 0.00 0.00 0.00 38 1008.5
20260906204859 28 191 14.5 17.7 0.00 0.00 0.00 38 1008.6
20260906204357 28 174 6.4 12.9 0.00 0.00 0.00 38 1008.2
20260906203857 27 146 4.8 8.0 0.00 0.00 0.00 38 1008.3
20260906203352 28 120 3.2 9.7 0.00 0.00 0.00 38 1008.3
20260906202850 28 231 6.4 11.3 0.00 0.00 0.00 37 1008.6
20260906202349 27 162 0.0 4.8 0.00 0.00 0.00 37 1008.3
20260906201849 27 137 0.0 0.0 0.00 0.00 0.00 38 1008.6
20260906201344 27 126 12.9 14.5 0.00 0.00 0.00 38 1008.5
20260906200839 28 263 0.0 0.0 0.00 0.00 0.00 38 1008.5
20260906200335 28 173 3.2 4.8 0.00 0.00 0.00 36 1008.7
20260906195830 27 94 0.0 0.0 0.00 0.00 0.00 37 1008.7
20260906195326 27 169 0.0 1.6 0.00 0.00 0.00 37 1008.8
20260906194822 27 146 1.6 3.2 0.00 0.00 0.00 37 1008.9
20260906194318 27 173 0.0 0.0 0.00 0.00 0.00 37 1008.7
20260906193812 27 129 4.8 11.3 0.00 0.00 0.00 37 1009.1
20260906193307 27 143 0.0 0.0 0.00 0.00 0.00 39 1008.8
20260906192804 27 152 3.2 8.0 0.00 0.00 0.00 38 1008.9
20260906192306 27 238 1.6 8.0 0.00 0.00 0.00 38 1009.1
20260906191802 27 199 0.0 1.6 0.00 0.00 0.00 37 1009.2
20260906191257 27 176 3.2 8.0 0.00 0.00 0.00 39 1009.1
20260906190752 27 147 4.8 8.0 0.00 0.00 0.00 40 1009.3
20260906190252 27 131 14.5 16.1 0.00 0.00 0.00 38 1009.3
20260906185751 27 170 0.0 3.2 0.00 0.00 0.00 39 1009.3
20260906185250 27 132 0.0 1.6 0.00 0.00 0.00 37 1009.3
20260906184745 27 129 0.0 0.0 0.00 0.00 0.00 38 1009.6
20260906184240 27 191 3.2 8.0 0.00 0.00 0.00 38 1009.8
20260906183736 27 149 0.0 0.0 0.00 0.00 0.00 38 1009.7
20260906183232 26 202 0.0 0.0 0.00 0.00 0.00 39 1009.8
20260906182732 26 123 0.0 0.0 0.00 0.00 0.00 39 1009.9
20260906182228 26 162 4.8 8.0 0.00 0.00 0.00 38 1009.9
20260906181723 26 137 1.6 4.8 0.00 0.00 0.00 40 1009.8
20260906181220 26 146 0.0 1.6 0.00 0.00 0.00 39 1010.1
20260906180719 25 180 0.0 0.0 0.00 0.00 0.00 41 1010.1
20260906180214 26 151 4.8 11.3 0.00 0.00 0.00 40 1010.3
20260906175712 25 182 6.4 9.7 0.00 0.00 0.00 40 1010.6
20260906175208 26 158 4.8 11.3 0.00 0.00 0.00 42 1010.6
20260906174706 26 224 0.0 0.0 0.00 0.00 0.00 38 1010.8
20260906174200 26 187 1.6 4.8 0.00 0.00 0.00 39 1010.6
20260906173656 26 103 0.0 0.0 0.00 0.00 0.00 38 1010.4
20260906173151 26 181 0.0 0.0 0.00 0.00 0.00 39 1010.8
20260906172651 26 252 0.0 0.0 0.00 0.00 0.00 38 1010.8
20260906172146 26 159 0.0 0.0 0.00 0.00 0.00 39 1010.8
20260906171646 26 135 0.0 0.0 0.00 0.00 0.00 39 1011.0
20260906171141 25 252 0.0 0.0 0.00 0.00 0.00 39 1011.0
20260906170638 25 298 0.0 0.0 0.00 0.00 0.00 39 1011.3
20260906170137 25 156 0.0 0.0 0.00 0.00 0.00 39 1011.0
20260906165633 25 162 0.0 0.0 0.00 0.00 0.00 41 1010.9
20260906165129 25 273 0.0 0.0 0.00 0.00 0.00 42 1011.0
20260906164627 24 193 0.0 0.0 0.00 0.00 0.00 42 1011.2
20260906164123 23 215 0.0 0.0 0.00 0.00 0.00 45 1011.3
20260906163619 23 193 0.0 0.0 0.00 0.00 0.00 46 1011.3
20260906163114 23 193 0.0 0.0 0.00 0.00 0.00 46 1011.2
20260906162611 23 167 0.0 0.0 0.00 0.00 0.00 47 1011.4
20260906162107 23 102 0.0 0.0 0.00 0.00 0.00 47 1011.0
20260906161607 22 208 0.0 0.0 0.00 0.00 0.00 46 1011.0
20260906161105 22 181 0.0 0.0 0.00 0.00 0.00 47 1010.9
20260906160605 23 146 0.0 0.0 0.00 0.00 0.00 46 1011.0
20260906160103 22 195 0.0 0.0 0.00 0.00 0.00 45 1010.7
20260906155601 23 212 0.0 0.0 0.00 0.00 0.00 45 1010.8
20260906155057 23 151 0.0 0.0 0.00 0.00 0.00 44 1011.0
20260906154552 23 130 0.0 0.0 0.00 0.00 0.00 44 1010.9
20260906154051 23 182 0.0 0.0 0.00 0.00 0.00 46 1010.8
20260906153550 23 179 0.0 0.0 0.00 0.00 0.00 45 1010.8
20260906153046 22 134 0.0 0.0 0.00 0.00 0.00 46 1010.7
20260906152545 22 241 0.0 0.0 0.00 0.00 0.00 45 1010.7
20260906152045 22 98 0.0 0.0 0.00 0.00 0.00 46 1010.9
20260906151540 22 144 0.0 1.6 0.00 0.00 0.00 46 1010.7
20260906151036 22 135 0.0 0.0 0.00 0.00 0.00 46 1010.9
20260906150531 22 157 0.0 0.0 0.00 0.00 0.00 45 1010.8
20260906150026 23 183 0.0 0.0 0.00 0.00 0.00 45 1010.8
20260906145525 22 196 0.0 0.0 0.00 0.00 0.00 46 1010.7
20260906145020 22 159 0.0 0.0 0.00 0.00 0.00 46 1010.4
20260906144514 21 240 0.0 0.0 0.00 0.00 0.00 49 1010.6
20260906144010 21 292 0.0 0.0 0.00 0.00 0.00 49 1010.7
20260906143505 21 139 0.0 0.0 0.00 0.00 0.00 50 1010.6
20260906143001 21 243 0.0 0.0 0.00 0.00 0.00 52 1010.7
20260906142501 20 241 0.0 0.0 0.00 0.00 0.00 53 1010.7
20260906141956 20 249 0.0 0.0 0.00 0.00 0.00 54 1010.4
20260906141455 20 259 0.0 0.0 0.00 0.00 0.00 53 1010.6
20260906140950 20 120 0.0 0.0 0.00 0.00 0.00 53 1010.4
20260906140445 19 147 0.0 0.0 0.00 0.00 0.00 56 1010.2
20260906135943 20 321 0.0 0.0 0.00 0.00 0.00 55 1010.4
20260906135441 18 149 0.0 0.0 0.00 0.00 0.00 56 1010.4
20260906134937 18 95 0.0 0.0 0.00 0.00 0.00 57 1010.6
20260906134433 18 145 0.0 0.0 0.00 0.00 0.00 55 1010.3
20260906133933 18 94 0.0 0.0 0.00 0.00 0.00 55 1010.2
20260906133429 18 77 0.0 0.0 0.00 0.00 0.00 56 1010.6
20260906132924 17 179 0.0 0.0 0.00 0.00 0.00 58 1010.2
20260906132419 17 212 0.0 0.0 0.00 0.00 0.00 58 1010.3
20260906131914 19 293 0.0 0.0 0.00 0.00 0.00 53 1010.1
20260906131410 18 122 0.0 0.0 0.00 0.00 0.00 54 1010.2
20260906130906 17 354 0.0 0.0 0.00 0.00 0.00 55 1009.9
20260906130405 17 98 0.0 0.0 0.00 0.00 0.00 57 1010.1
20260906125904 17 95 0.0 0.0 0.00 0.00 0.00 57 1009.9
20260906125401 17 66 0.0 0.0 0.00 0.00 0.00 56 1009.7
20260906124856 18 112 0.0 0.0 0.00 0.00 0.00 55 1009.7
20260906124352 18 67 0.0 0.0 0.00 0.00 0.00 56 1009.7
20260906123852 18 111 0.0 0.0 0.00 0.00 0.00 55 1009.6
20260906123346 17 39 0.0 0.0 0.00 0.00 0.00 56 1010.1
20260906122846 17 121 0.0 0.0 0.00 0.00 0.00 57 1009.7
20260906122341 17 136 0.0 0.0 0.00 0.00 0.00 59 1009.8
20260906121838 16 122 0.0 0.0 0.00 0.00 0.00 59 1009.8
20260906121334 17 150 0.0 0.0 0.00 0.00 0.00 59 1009.8
20260906120830 17 45 0.0 0.0 0.00 0.00 0.00 58 1009.9
20260906120325 16 99 0.0 0.0 0.00 0.00 0.00 61 1009.7
20260906115821 15 64 0.0 0.0 0.00 0.00 0.00 63 1009.9
20260906115317 15 125 0.0 0.0 0.00 0.00 0.00 65 1009.7
20260906114816 15 82 0.0 0.0 0.00 0.00 0.00 64 1010.2
20260906114311 16 170 0.0 0.0 0.00 0.00 0.00 61 1009.8
20260906113806 16 43 0.0 0.0 0.00 0.00 0.00 59 1009.7
20260906113306 17 107 0.0 0.0 0.00 0.00 0.00 58 1009.7
20260906112801 17 65 0.0 0.0 0.00 0.00 0.00 59 1009.8
20260906112257 16 86 0.0 0.0 0.00 0.00 0.00 60 1010.1
20260906111756 16 94 0.0 0.0 0.00 0.00 0.00 59 1009.8
20260906111255 17 129 0.0 0.0 0.00 0.00 0.00 58 1009.6
20260906110751 17 45 0.0 0.0 0.00 0.00 0.00 57 1009.7
20260906110247 17 98 0.0 0.0 0.00 0.00 0.00 56 1009.7
20260906105746 17 61 0.0 0.0 0.00 0.00 0.00 56 1009.7
20260906105242 17 30 0.0 0.0 0.00 0.00 0.00 56 1009.6
20260906104737 18 90 0.0 0.0 0.00 0.00 0.00 55 1009.7
20260906104236 18 121 0.0 0.0 0.00 0.00 0.00 55 1009.6
20260906103734 18 109 0.0 0.0 0.00 0.00 0.00 54 1009.8
20260906103234 18 120 0.0 0.0 0.00 0.00 0.00 53 1009.7
20260906102729 17 97 0.0 0.0 0.00 0.00 0.00 54 1009.7
20260906102229 17 116 0.0 0.0 0.00 0.00 0.00 54 1009.7
20260906101724 17 81 0.0 0.0 0.00 0.00 0.00 56 1009.7
20260906101219 17 98 0.0 0.0 0.00 0.00 0.00 55 1009.9
20260906100714 18 36 0.0 0.0 0.00 0.00 0.00 54 1009.8
20260906100209 18 88 0.0 0.0 0.00 0.00 0.00 53 1009.7
20260906095709 18 78 0.0 0.0 0.00 0.00 0.00 54 1009.8
20260906095204 17 89 0.0 0.0 0.00 0.00 0.00 54 1009.8
20260906094703 17 141 0.0 0.0 0.00 0.00 0.00 55 1009.8
20260906094159 17 343 0.0 0.0 0.00 0.00 0.00 55 1009.9
20260906093655 17 85 0.0 0.0 0.00 0.00 0.00 55 1009.4
20260906093150 18 125 0.0 0.0 0.00 0.00 0.00 54 1009.7
20260906092645 18 56 0.0 0.0 0.00 0.00 0.00 53 1009.3
20260906092144 18 10 0.0 0.0 0.00 0.00 0.00 54 1009.3
20260906091641 18 11 0.0 0.0 0.00 0.00 0.00 54 1009.7
20260906091137 18 83 0.0 0.0 0.00 0.00 0.00 54 1009.7
20260906090633 18 280 0.0 0.0 0.00 0.00 0.00 55 1009.6
20260906090132 17 337 0.0 0.0 0.00 0.00 0.00 55 1009.6
20260906085631 17 21 0.0 0.0 0.00 0.00 0.00 55 1009.6
20260906085132 18 86 0.0 0.0 0.00 0.00 0.00 55 1009.2
20260906084632 18 139 0.0 0.0 0.00 0.00 0.00 55 1009.4
20260906084131 18 224 0.0 0.0 0.00 0.00 0.00 55 1009.3
20260906083626 18 332 0.0 0.0 0.00 0.00 0.00 54 1009.7
20260906083127 18 25 0.0 0.0 0.00 0.00 0.00 54 1009.3
20260906082622 18 55 0.0 0.0 0.00 0.00 0.00 54 1009.3
20260906082118 18 76 0.0 0.0 0.00 0.00 0.00 53 1009.3
20260906081613 18 146 0.0 0.0 0.00 0.00 0.00 53 1009.6
20260906081108 18 27 0.0 0.0 0.00 0.00 0.00 53 1009.6
20260906080605 18 81 0.0 0.0 0.00 0.00 0.00 53 1009.3
20260906075601 18 134 0.0 0.0 0.00 0.00 0.00 52 1009.2
20260906075055 18 91 0.0 0.0 0.00 0.00 0.00 52 1009.3
20260906074550 19 134 0.0 0.0 0.00 0.00 0.00 52 1009.6
20260906074049 18 91 0.0 0.0 0.00 0.00 0.00 52 1009.3
20260906073544 18 325 0.0 0.0 0.00 0.00 0.00 53 1009.3
20260906073040 18 36 0.0 0.0 0.00 0.00 0.00 53 1009.6
20260906072535 18 101 0.0 0.0 0.00 0.00 0.00 52 1009.6
20260906072031 19 128 0.0 0.0 0.00 0.00 0.00 52 1009.6
20260906071527 20 90 0.0 0.0 0.00 0.00 0.00 51 1009.3
20260906071022 19 55 0.0 0.0 0.00 0.00 0.00 51 1009.3
20260906070518 18 74 0.0 0.0 0.00 0.00 0.00 53 1009.4
20260906070014 17 53 0.0 0.0 0.00 0.00 0.00 59 1009.6
20260906065513 18 200 0.0 0.0 0.00 0.00 0.00 54 1009.7
20260906065009 18 26 0.0 0.0 0.00 0.00 0.00 53 1009.6
20260906064505 18 80 0.0 0.0 0.00 0.00 0.00 54 1009.4
20260906063959 16 71 0.0 0.0 0.00 0.00 0.00 58 1009.4
20260906063455 16 184 0.0 0.0 0.00 0.00 0.00 60 1009.3
20260906062955 16 159 0.0 0.0 0.00 0.00 0.00 60 1009.6
20260906062450 16 144 0.0 0.0 0.00 0.00 0.00 60 1009.4
20260906061945 15 133 0.0 0.0 0.00 0.00 0.00 60 1009.6
20260906061442 15 122 0.0 0.0 0.00 0.00 0.00 62 1009.6
20260906060941 15 135 0.0 0.0 0.00 0.00 0.00 61 1009.4
20260906060438 15 78 0.0 0.0 0.00 0.00 0.00 61 1009.3
20260906055935 15 149 0.0 0.0 0.00 0.00 0.00 60 1009.6
20260906055430 15 122 0.0 0.0 0.00 0.00 0.00 60 1009.4
20260906054926 15 118 0.0 0.0 0.00 0.00 0.00 60 1009.3
20260906054420 15 164 0.0 0.0 0.00 0.00 0.00 61 1009.6
20260906053916 16 172 0.0 0.0 0.00 0.00 0.00 60 1009.4
20260906053412 16 89 0.0 0.0 0.00 0.00 0.00 58 1009.7
20260906052908 16 104 0.0 0.0 0.00 0.00 0.00 58 1009.6
20260906052404 15 137 0.0 0.0 0.00 0.00 0.00 58 1009.8
20260906051900 15 119 0.0 0.0 0.00 0.00 0.00 60 1009.8
20260906051400 16 137 0.0 0.0 0.00 0.00 0.00 59 1009.9
20260906050856 15 119 0.0 0.0 0.00 0.00 0.00 59 1009.8
20260906050351 15 127 0.0 0.0 0.00 0.00 0.00 59 1009.9
20260906045850 16 137 0.0 0.0 0.00 0.00 0.00 58 1009.8
20260906045349 16 117 0.0 0.0 0.00 0.00 0.00 58 1009.8
20260906044846 16 117 0.0 0.0 0.00 0.00 0.00 58 1009.7
20260906044345 16 113 0.0 0.0 0.00 0.00 0.00 58 1009.8
20260906043841 16 124 0.0 0.0 0.00 0.00 0.00 57 1009.7
20260906043337 16 151 0.0 0.0 0.00 0.00 0.00 56 1009.7
20260906042832 16 117 0.0 0.0 0.00 0.00 0.00 56 1009.6
20260906042331 16 156 0.0 0.0 0.00 0.00 0.00 57 1009.8
20260906041827 16 86 0.0 0.0 0.00 0.00 0.00 56 1009.4
20260906041322 16 158 0.0 0.0 0.00 0.00 0.00 57 1009.6
20260906040822 16 135 0.0 0.0 0.00 0.00 0.00 57 1009.8
20260906040318 16 125 0.0 0.0 0.00 0.00 0.00 57 1009.6
20260906035813 16 126 0.0 0.0 0.00 0.00 0.00 56 1009.4
20260906035308 16 127 0.0 0.0 0.00 0.00 0.00 57 1009.4
20260906034804 16 142 0.0 0.0 0.00 0.00 0.00 56 1009.3
20260906034303 16 107 0.0 0.0 0.00 0.00 0.00 56 1009.4
20260906033759 16 135 0.0 0.0 0.00 0.00 0.00 56 1009.6
20260906033259 17 113 0.0 0.0 0.00 0.00 0.00 55 1009.7
20260906032755 17 139 0.0 0.0 0.00 0.00 0.00 54 1009.3
20260906032256 17 113 0.0 0.0 0.00 0.00 0.00 54 1009.6
20260906031751 17 134 0.0 0.0 0.00 0.00 0.00 53 1009.4
20260906031247 18 113 0.0 0.0 0.00 0.00 0.00 53 1009.6
20260906030746 18 120 0.0 0.0 0.00 0.00 0.00 51 1009.4
20260906030242 18 154 0.0 0.0 0.00 0.00 0.00 51 1009.6
20260906025741 17 151 0.0 0.0 0.00 0.00 0.00 53 1009.3
20260906025235 17 151 0.0 0.0 0.00 0.00 0.00 53 1009.2
20260906024734 18 123 0.0 0.0 0.00 0.00 0.00 52 1009.4
20260906024233 18 117 0.0 0.0 0.00 0.00 0.00 52 1009.2
20260906023729 18 147 0.0 0.0 0.00 0.00 0.00 51 1008.9
20260906023225 18 128 0.0 0.0 0.00 0.00 0.00 50 1009.1
20260906022720 18 110 0.0 0.0 0.00 0.00 0.00 50 1009.1
20260906022215 18 99 0.0 0.0 0.00 0.00 0.00 50 1008.9
20260906021711 19 155 0.0 0.0 0.00 0.00 0.00 49 1008.7
20260906021210 20 190 0.0 0.0 0.00 0.00 0.00 48 1008.5
20260906020705 20 124 0.0 0.0 0.00 0.00 0.00 48 1008.7
20260906020159 20 153 0.0 0.0 0.00 0.00 0.00 48 1008.6
20260906015654 20 129 0.0 0.0 0.00 0.00 0.00 48 1008.8
20260906015153 20 122 0.0 0.0 0.00 0.00 0.00 48 1008.7
20260906014652 20 144 0.0 0.0 0.00 0.00 0.00 47 1008.6
20260906014149 21 151 0.0 0.0 0.00 0.00 0.00 46 1008.7
20260906013644 21 129 0.0 0.0 0.00 0.00 0.00 45 1008.8
20260906013139 22 142 0.0 0.0 0.00 0.00 0.00 43 1008.6
20260906012640 23 82 0.0 0.0 0.00 0.00 0.00 42 1008.5
20260906012139 23 120 0.0 0.0 0.00 0.00 0.00 41 1008.6
20260906011636 23 106 0.0 0.0 0.00 0.00 0.00 41 1008.5
20260906011130 24 55 0.0 0.0 0.00 0.00 0.00 40 1008.6
20260906010626 24 161 0.0 0.0 0.00 0.00 0.00 39 1008.6
20260906010122 24 75 0.0 0.0 0.00 0.00 0.00 40 1008.3
20260906005621 24 161 0.0 0.0 0.00 0.00 0.00 40 1008.6
20260906005121 24 79 0.0 0.0 0.00 0.00 0.00 39 1008.5
20260906004620 25 128 0.0 0.0 0.00 0.00 0.00 39 1008.5
20260906004115 25 48 0.0 0.0 0.00 0.00 0.00 39 1008.6
20260906003610 25 105 0.0 0.0 0.00 0.00 0.00 38 1008.7
20260906003107 26 92 0.0 0.0 0.00 0.00 0.00 37 1008.6
20260906002606 26 141 0.0 1.6 0.00 0.00 0.00 36 1008.3
20260906002101 26 65 8.0 11.3 0.00 0.00 0.00 36 1008.3
20260906001557 27 164 1.6 8.0 0.00 0.00 0.00 35 1008.2
20260906001057 27 158 0.0 1.6 0.00 0.00 0.00 35 1008.0
20260906000553 27 126 0.0 1.6 0.00 0.00 0.00 36 1008.1
20260906000048 27 172 4.8 11.3 0.00 0.00 0.00 35 1008.3
20260905235547 26 124 8.0 12.9 0.00 0.00 0.00 36 1008.3
20260905235042 26 164 0.0 1.6 0.00 0.00 0.00 36 1008.2
20260905234537 27 123 9.7 12.9 0.00 0.00 0.00 35 1008.0
20260905234032 27 171 0.0 0.0 0.00 0.00 0.00 35 1008.0
20260905233527 26 154 0.0 0.0 0.00 0.00 0.00 35 1008.2
20260905233027 27 165 3.2 4.8 0.00 0.00 0.00 35 1008.2
20260905232522 28 168 9.7 14.5 0.00 0.00 0.00 33 1008.1
20260905232018 28 125 8.0 17.7 0.00 0.00 0.00 33 1008.1
20260905231513 28 168 0.0 0.0 0.00 0.00 0.00 33 1007.8
20260905231009 28 207 6.4 16.1 0.00 0.00 0.00 33 1008.1
20260905230508 27 161 0.0 0.0 0.00 0.00 0.00 31 1007.7
20260905230006 28 201 0.0 1.6 0.00 0.00 0.00 32 1008.2
20260905225501 28 152 6.4 12.9 0.00 0.00 0.00 31 1007.7
20260905224956 28 222 0.0 0.0 0.00 0.00 0.00 31 1008.0
20260905224452 28 150 0.0 0.0 0.00 0.00 0.00 32 1008.0
20260905223951 29 154 1.6 9.7 0.00 0.00 0.00 31 1008.2
20260905223449 29 230 0.0 0.0 0.00 0.00 0.00 31 1008.0
20260905222944 29 169 0.0 0.0 0.00 0.00 0.00 30 1008.0
20260905222443 28 190 0.0 0.0 0.00 0.00 0.00 31 1008.2
20260905221939 28 166 6.4 11.3 0.00 0.00 0.00 31 1008.0
20260905221435 28 125 3.2 8.0 0.00 0.00 0.00 31 1008.2
20260905220932 28 56 3.2 4.8 0.00 0.00 0.00 31 1008.2